Regional Weather Roundup
Issued by NWS Northern Indiana

Home | Current Version | Previous Version | Graphics & Text | Print | Product List | Glossary On
Versions: 1 2 3 4 5 6 7 8 9 10 11 12 13 14 15 16 17 18 19 20 21 22 23 24 25 26 27 28 29 30 31 32 33 34 35 36 37 38 39 40 41 42 43 44 45 46 47 48 49 50
605
ASUS43 KIWX 171100
RWRIWX

KIWX WEATHER ROUNDUP
NATIONAL WEATHER SERVICE NORTHERN INDIANA
600 AM EST FRI NOV 17 2017

NOTE: "FAIR" INDICATES FEW OR NO CLOUDS BELOW 12,000 FEET WITH NO
SIGNIFICANT WEATHER AND/OR OBSTRUCTIONS TO VISIBILITY.

* THESE STATIONS ARE NOT UNDER NWS QUALITY CONTROL. THEY ALSO MAY NOT
  REPORT WEATHER SUCH AS PRECIPITATION OR FOG.

INZ001>027-171200-
NORTHERN INDIANA

CITY           SKY/WX    TMP DP  RH WIND       PRES   REMARKS
GARY*          PTCLDY    37  32  81 S8        30.17F
MICHIGAN CITY* CLOUDY    34  30  86 S6        30.19F WCI  29
LAPORTE*       CLOUDY    35  31  86 S7        30.19F WCI  29
KNOX*          CLOUDY    36  32  87 S7        30.21S
SOUTH BEND     CLOUDY    34  30  85 S13       30.20F WCI  25
GOSHEN         CLOUDY    36  28  73 S7        30.21S
MONTICELLO*    CLOUDY    35  30  82 SE6       30.21R WCI  30
WARSAW*        CLOUDY    34  30  86 SE5       30.21F WCI  30
AUBURN*        CLOUDY    36  30  80 SE3       30.23F
FORT WAYNE     CLOUDY    37  31  78 S6        30.24R
PERU/GRISSOM   CLOUDY    36  33  89 S8        30.20S

$$
INZ028>050-171200-
CENTRAL INDIANA

CITY           SKY/WX    TMP DP  RH WIND       PRES   REMARKS
LAFAYETTE      PTCLDY    32  30  92 CALM      30.21R
KOKOMO*        CLOUDY    35  31  85 SE9       30.21F WCI  28
MUNCIE*        CLOUDY    37  30  75 S6        30.22F
INDIANAPOLIS   MOCLDY    34  29  82 SE13      30.21S WCI  25

$$
MIZ043>046-050>051-056>058-064>065-071>073-077>080-171200-
SOUTHWEST LOWER MICHIGAN

CITY           SKY/WX    TMP DP  RH WIND       PRES   REMARKS
BATTLE CREEK   CLOUDY    34  29  82 SE5       30.22F WCI  30
BENTON HARBOR  CLOUDY    36  30  79 SE7       30.18F
COLDWATER*     MOCLDY    32  29  88 SE3       30.21F
HILLSDALE*     CLOUDY    32  28  86 SE3       30.22R
HOLLAND        CLOUDY    33  30  88 SE9       30.19F WCI  25
GRAND RAPIDS   CLOUDY    31  30  96 E10       30.20F WCI  22
KALAMAZOO      CLOUDY    36  28  73 S6        30.20F
THREE RIVERS*  CLOUDY    37  31  81 S6        30.22S

$$
OHZ001>008-015>018-024>025-171200-
NORTHWEST OHIO

CITY           SKY/WX    TMP DP  RH WIND       PRES   REMARKS
DEFIANCE       CLOUDY    30  26  85 CALM      30.26R
FINDLAY        PTCLDY    32  26  78 CALM      30.25R
TOLEDO EXPRESS CLOUDY    37  30  75 CALM      30.26R
TOLEDO METCALF CLOUDY    38  28  67 S5        30.27R
LIMA           CLOUDY    34  29  82 S5        30.24R WCI  30

$$
AND FOR LAKE MICHIGAN COASTAL AND OPEN LAKE BUOY OBSERVATIONS

STATION/POSITION TEMP    WIND        PRES    VSBY  WAVE
                 AIR SEA DIR/SP/G                  HT/PER
                 (F)     (DEG/KT/KT) (MB)    (MI)  (FT/S)
CALUMET HARBOR    36     150/  9/ 17 1020.6F
MICHIGAN CITY     36     150/  9/ 13   N/A
BURNS HARBOR      36     170/  6/ 12 1022.0F
SAINT JOSEPH      36      CALM  /  7 1022.4
SOUTH LAKE BUOY   43 50  150/ 16/ 19 1021.0          2/ 7

$$
&&




USA.gov is the U.S. government's official web portal to all federal, state and local government web resources and services.